This demonstration page uses our WeatherBlox Daily Observations layout. Learn more.

Left ArrowRight Arrow

39.08367, -84.50855

Hourly Observations for March 3, 2020

Temp ( °F °C ) Dew Point ( °F °C ) Humidity (%) Winds ( mph kmh ) Pressure ( in mb ) Visibility ( mi km ) Precip ( " mm )
12:01 am 00:01 Mostly Cloudy with Mist and Fog 49 9.4 49 9.4 100 100 N N/A 29.72 1006 1 1 N/A
12:12 am 00:12 Mostly Cloudy with Fog 49 9.4 49 9.4 100 100 N N/A 29.71 1006 0 0 N/A
12:32 am 00:32 Mostly Cloudy with Fog 49 9.4 49 9.4 100 100 WSW 5 7 29.71 1006 1 1 N/A
12:36 am 00:36 Mostly Cloudy with Mist and Fog 49 9.4 49 9.4 100 100 SW 3 6 29.71 1006 2 3 N/A
12:43 am 00:43 Cloudy with Mist and Fog 49 9.4 49 9.4 100 100 W 3 6 29.70 1006 5 8 N/A
12:53 am 00:53 Cloudy 51 10.6 50 10 96 96 N N/A 29.68 1005 7 11 N/A
1:53 am 01:53 Cloudy 54 12.2 52 11.1 93 93 S 8 13 29.64 1004 10 16 N/A
2:42 am 02:42 Cloudy with Nearby Thunderstorms 54 12.2 52 11.1 93 93 S 8 13 29.62 1003 10 16 0.00 0.00
2:53 am 02:53 Cloudy with Nearby Thunderstorms 54 12.2 52 11.1 93 93 SSW 10 17 29.63 1003 10 16 0.01 0.25
3:12 am 03:12 Cloudy with Rain 54 12.2 52 11.1 93 93 SSW 10 17 29.63 1003 3 5 0.07 1.78
3:20 am 03:20 Cloudy with Rain 53 11.7 52 11.1 96 96 SSW 12 19 29.62 1003 3 5 0.09 2.29
3:40 am 03:40 Cloudy with Heavy Rain 54 12.2 53 11.7 97 97 SSW 6 9 29.62 1003 3 4 0.18 4.57
3:53 am 03:53 Cloudy with Light Rain 53 11.7 53 11.7 100 100 SW 3 6 29.61 1003 5 8 0.21 5.33
4:25 am 04:25 Cloudy 53 11.7 52 11.1 96 96 N N/A 29.61 1003 10 16 0.02 0.51
4:34 am 04:34 Cloudy 52 11.1 52 11.1 100 100 N N/A 29.62 1003 7 11 0.02 0.51
4:49 am 04:49 Cloudy with Mist and Fog 52 11 52 11 100 100 NE 3 6 29.61 1003 6 10 0.02 0.51
4:53 am 04:53 Cloudy with Mist and Fog 52 11.1 52 11.1 100 100 N N/A 29.60 1002 3 5 0.02 0.51
4:55 am 04:55 Cloudy with Mist and Fog 52 11.1 52 11.1 100 100 N N/A 29.61 1003 2 3 N/A
5:05 am 05:05 Cloudy with Fog 52 11.1 51 10.6 97 97 N N/A 29.62 1003 1 1 N/A
5:23 am 05:23 Cloudy with Fog 50 10 50 10 100 100 WSW 3 6 29.63 1003 1 1 N/A
5:44 am 05:44 Cloudy with Mist and Fog 51 10.6 51 10.6 100 100 S 3 6 29.62 1003 2 2 N/A
5:48 am 05:48 Cloudy with Mist and Fog 52 11 52 11 100 100 N N/A 29.62 1003 3 5 N/A
5:53 am 05:53 Cloudy with Mist and Fog 51 10.6 51 10.6 100 100 N N/A 29.61 1003 5 8 N/A
6:19 am 06:19 Partly Cloudy 50 10 49 9.4 96 96 N N/A 29.61 1003 10 16 N/A
6:53 am 06:53 Mostly Cloudy 51 10.6 50 10 96 96 SW 8 13 29.59 1002 10 16 N/A
7:06 am 07:06 Mostly Cloudy 51 10.6 50 10 96 96 S 13 20 29.61 1003 10 16 N/A
7:53 am 07:53 Cloudy 52 11.1 51 10.6 97 97 SSW 7 11 29.62 1003 10 16 N/A
8:00 am 08:00 Cloudy 53 11.7 51 10.6 93 93 SW 7 11 29.63 1004 10 16 N/A
8:46 am 08:46 Cloudy 53 11.7 50 10 89 89 SSW 13 20 29.62 1003 10 16 N/A
8:53 am 08:53 Cloudy 54 12.2 50 10 87 87 SSW 12 19 29.62 1003 10 16 N/A
9:53 am 09:53 Cloudy with Light Rain 53 11.7 51 10.6 93 93 SSW 13 20 29.61 1003 5 8 0.01 0.25
10:53 am 10:53 Cloudy with Light Rain 53 11.7 51 10.6 93 93 SW 8 13 29.61 1003 4 6 0.00 0.00
11:48 am 11:48 Cloudy with Light Rain 50 10 46 8 88 88 WNW 9 15 29.66 1004 4 6 0.01 0.25
11:53 am 11:53 Cloudy with Light Rain 50 10 47 8.3 89 89 WNW 12 19 29.65 1004 4 6 0.01 0.25
12:29 pm 12:29 Cloudy 51 10.6 47 8.3 86 86 WSW 12 19 29.66 1004 8 13 0.00 0.00
12:53 pm 12:53 Partly Cloudy 54 12.2 46 7.8 75 75 WSW 12 19 29.66 1004 10 16 0.00 0.00
1:53 pm 13:53 Mostly Sunny 57 13.9 42 5.6 58 58 W 15 24 29.64 1004 10 16 N/A
2:53 pm 14:53 Mostly Cloudy 59 15 39 3.9 48 48 WSW 22 35 29.64 1004 10 16 N/A
3:53 pm 15:53 Mostly Cloudy 60 15.6 35 1.7 39 39 W 24 39 29.66 1005 10 16 N/A
4:53 pm 16:53 Mostly Cloudy 57 13.9 33 0.6 41 41 W 21 33 29.68 1005 10 16 N/A
5:53 pm 17:53 Mostly Cloudy 57 13.9 31 -0.6 37 37 W 17 28 29.71 1006 10 16 N/A
6:53 pm 18:53 Partly Cloudy 54 12.2 27 -2.8 35 35 W 18 30 29.78 1008 10 16 N/A
7:53 pm 19:53 Mostly Clear 53 11.7 27 -2.8 37 37 W 13 20 29.82 1010 10 16 N/A
8:53 pm 20:53 Clear 51 10.6 27 -2.8 39 39 W 10 17 29.84 1011 10 16 N/A
9:53 pm 21:53 Clear 48 8.9 28 -2.2 46 46 WSW 6 9 29.87 1012 10 16 N/A
10:53 pm 22:53 Clear 48 8.9 28 -2.2 46 46 W 6 9 29.91 1013 10 16 N/A
11:53 pm 23:53 Clear 47 8.3 27 -2.8 46 46 W 3 6 29.93 1014 10 16 N/A

Powered by AerisWeather